EZY38FD EGCC-GMMX

Flight info

Callsign EZY38FD
Flight time N/A
Altitude 34000
Route ASMIM DCT NOKIN P17 BEPHE DCT OSSEP DCT ELNIF DCT ZESPE DCT KLAKI DCT SALCO DCT BALDA DCT BATAX DCT NINOS DCT PINOX DCT TOFEF DCT ALAGU DCT UBESO DCT AMSEL UR722 MABAP
Aircraft A320/M-SDE2E3FGHIJ1RWXYZ/LB1

Departure

Time N/A
Airport Manchester Airport (EGCC)

Arrival

Time 2026-04-29 16:37
Airport Marrakesh Menara Airport (GMMX)
Time Latitude Longitude Altitude Speed Heading
2026-04-29 16:09 33.91201 -7.91026 33938 ft 421 kts 192°
2026-04-29 16:09 33.88297 -7.91487 33937 ft 421 kts 192°
2026-04-29 16:10 33.82485 -7.92408 33944 ft 423 kts 191°
2026-04-29 16:10 33.76676 -7.93322 33961 ft 424 kts 191°
2026-04-29 16:11 33.70835 -7.94221 33959 ft 423 kts 191°
2026-04-29 16:11 33.65001 -7.95127 33956 ft 422 kts 191°
2026-04-29 16:12 33.59177 -7.96040 33919 ft 419 kts 191°
2026-04-29 16:12 33.57272 -7.96335 33583 ft 416 kts 191°
2026-04-29 16:12 33.53472 -7.96927 32975 ft 408 kts 192°
2026-04-29 16:12 33.50679 -7.97372 32529 ft 402 kts 192°
2026-04-29 16:13 33.47917 -7.97818 32079 ft 398 kts 192°
2026-04-29 16:13 33.45228 -7.98249 31629 ft 394 kts 192°
2026-04-29 16:13 33.42529 -7.98677 31181 ft 389 kts 192°
2026-04-29 16:13 33.39856 -7.99103 30730 ft 386 kts 191°
2026-04-29 16:14 33.37207 -7.99529 30279 ft 382 kts 192°
2026-04-29 16:14 33.34589 -7.99948 29817 ft 378 kts 192°
2026-04-29 16:14 33.31988 -8.00368 29376 ft 375 kts 192°
2026-04-29 16:14 33.29409 -8.00784 28925 ft 373 kts 191°
2026-04-29 16:15 33.26846 -8.01191 28474 ft 370 kts 191°
2026-04-29 16:15 33.24300 -8.01593 28025 ft 368 kts 191°
2026-04-29 16:15 33.21765 -8.01994 27575 ft 366 kts 191°
2026-04-29 16:15 33.19248 -8.02392 27123 ft 364 kts 191°
2026-04-29 16:16 33.16779 -8.02786 26670 ft 362 kts 191°
2026-04-29 16:16 33.14291 -8.03180 26226 ft 360 kts 191°
2026-04-29 16:16 33.11812 -8.03571 25775 ft 358 kts 191°
2026-04-29 16:16 33.09348 -8.03960 25323 ft 356 kts 191°
2026-04-29 16:17 33.06895 -8.04347 24872 ft 355 kts 191°
2026-04-29 16:17 33.04458 -8.04735 24423 ft 353 kts 191°
2026-04-29 16:17 33.02029 -8.05121 23970 ft 351 kts 191°
2026-04-29 16:17 32.99622 -8.05502 23515 ft 349 kts 191°
2026-04-29 16:18 32.97223 -8.05881 23068 ft 346 kts 190°
2026-04-29 16:18 32.94840 -8.06258 22618 ft 345 kts 190°
2026-04-29 16:18 32.93267 -8.06506 22320 ft 344 kts 190°
2026-04-29 16:18 32.90902 -8.06885 21869 ft 342 kts 190°
2026-04-29 16:19 32.87781 -8.07397 21272 ft 341 kts 191°
2026-04-29 16:19 32.86197 -8.07660 20967 ft 340 kts 191°
2026-04-29 16:19 32.83102 -8.08175 20370 ft 339 kts 191°
2026-04-29 16:19 32.80771 -8.08564 19921 ft 338 kts 191°
2026-04-29 16:20 32.79201 -8.08825 19614 ft 337 kts 190°
2026-04-29 16:20 32.76881 -8.09207 19164 ft 336 kts 190°
2026-04-29 16:20 32.74602 -8.09585 18719 ft 335 kts 190°
2026-04-29 16:20 32.72294 -8.09967 18260 ft 335 kts 190°
2026-04-29 16:21 32.69990 -8.10346 17816 ft 334 kts 190°
2026-04-29 16:21 32.67688 -8.10721 17367 ft 334 kts 190°
2026-04-29 16:21 32.65389 -8.11094 16916 ft 333 kts 190°
2026-04-29 16:21 32.63094 -8.11468 16471 ft 333 kts 189°
2026-04-29 16:22 32.60799 -8.11842 16016 ft 332 kts 189°
2026-04-29 16:22 32.58519 -8.12214 15555 ft 327 kts 189°
2026-04-29 16:22 32.56301 -8.12574 15106 ft 316 kts 189°
2026-04-29 16:22 32.54153 -8.12921 14655 ft 307 kts 189°
2026-04-29 16:23 32.52060 -8.13263 14272 ft 302 kts 189°
2026-04-29 16:23 32.49989 -8.13603 14013 ft 299 kts 189°
2026-04-29 16:23 32.47933 -8.13939 13765 ft 298 kts 188°
2026-04-29 16:23 32.45886 -8.14275 13513 ft 296 kts 188°
2026-04-29 16:24 32.43879 -8.14602 13267 ft 295 kts 188°
2026-04-29 16:24 32.41851 -8.14933 13011 ft 293 kts 188°
2026-04-29 16:24 32.39832 -8.15263 12756 ft 292 kts 188°
2026-04-29 16:24 32.37826 -8.15589 12510 ft 290 kts 188°
2026-04-29 16:25 32.35829 -8.15913 12264 ft 288 kts 188°
2026-04-29 16:25 32.33846 -8.16235 12012 ft 287 kts 187°
2026-04-29 16:25 32.31875 -8.16554 11761 ft 286 kts 187°
2026-04-29 16:25 32.29902 -8.16873 11509 ft 286 kts 187°
2026-04-29 16:26 32.27925 -8.17195 11260 ft 287 kts 187°
2026-04-29 16:26 32.25949 -8.17516 11009 ft 287 kts 187°
2026-04-29 16:26 32.23970 -8.17836 10758 ft 287 kts 187°
2026-04-29 16:26 32.22013 -8.18151 10510 ft 288 kts 187°
2026-04-29 16:27 32.20025 -8.18473 10258 ft 288 kts 188°
2026-04-29 16:27 32.18035 -8.18798 10027 ft 289 kts 188°
2026-04-29 16:27 32.16043 -8.19123 9925 ft 288 kts 188°
2026-04-29 16:27 32.14052 -8.19444 9941 ft 289 kts 188°
2026-04-29 16:28 32.12055 -8.19679 9946 ft 289 kts 180°
2026-04-29 16:28 32.10044 -8.19588 9908 ft 290 kts 178°
2026-04-29 16:28 32.08030 -8.19484 9621 ft 288 kts 178°
2026-04-29 16:28 32.06028 -8.19385 9353 ft 288 kts 178°
2026-04-29 16:29 32.04020 -8.19287 9079 ft 289 kts 178°
2026-04-29 16:29 32.02036 -8.19189 8802 ft 289 kts 178°
2026-04-29 16:29 32.00030 -8.19091 8531 ft 289 kts 178°
2026-04-29 16:29 31.98025 -8.18995 8255 ft 288 kts 178°
2026-04-29 16:30 31.96030 -8.18898 7981 ft 287 kts 178°
2026-04-29 16:30 31.94035 -8.18801 7703 ft 287 kts 178°
2026-04-29 16:30 31.92042 -8.18703 7421 ft 286 kts 178°
2026-04-29 16:30 31.90057 -8.18607 7150 ft 285 kts 178°
2026-04-29 16:31 31.88079 -8.18511 6874 ft 284 kts 178°
2026-04-29 16:31 31.86107 -8.18415 6598 ft 283 kts 178°
2026-04-29 16:31 31.84143 -8.18318 6320 ft 282 kts 178°
2026-04-29 16:31 31.82213 -8.18223 6048 ft 281 kts 178°
2026-04-29 16:32 31.80259 -8.18126 5769 ft 280 kts 178°
2026-04-29 16:32 31.78316 -8.18030 5514 ft 279 kts 178°
2026-04-29 16:32 31.76373 -8.17934 5265 ft 279 kts 178°
2026-04-29 16:32 31.74442 -8.17838 5012 ft 278 kts 178°
2026-04-29 16:33 31.70648 -8.17645 4510 ft 266 kts 178°
2026-04-29 16:33 31.68825 -8.17555 4255 ft 259 kts 178°
2026-04-29 16:33 31.67052 -8.17467 4001 ft 249 kts 178°
2026-04-29 16:34 31.65371 -8.17382 3758 ft 236 kts 178°
2026-04-29 16:34 31.63783 -8.17180 3547 ft 223 kts 161°
2026-04-29 16:34 31.62484 -8.16278 3319 ft 215 kts 133°
2026-04-29 16:34 31.61734 -8.14846 3128 ft 207 kts 106°
2026-04-29 16:35 31.61520 -8.13214 2864 ft 200 kts 95°
2026-04-29 16:35 31.61388 -8.11639 2614 ft 187 kts 95°
2026-04-29 16:35 31.61262 -8.10169 2366 ft 175 kts 95°
2026-04-29 16:35 31.61141 -8.08786 2144 ft 167 kts 94°
2026-04-29 16:36 31.61023 -8.07461 1934 ft 159 kts 95°
2026-04-29 16:36 31.60908 -8.06182 1722 ft 156 kts 94°
2026-04-29 16:36 31.60804 -8.04922 1549 ft 154 kts 95°
2026-04-29 16:36 31.60705 -8.03801 1537 ft 117 kts 96°
2026-04-29 16:37 31.60656 -8.03211 1543 ft 38 kts 97°
2026-04-29 16:37 31.60625 -8.02904 1547 ft 38 kts 96°
2026-04-29 16:37 31.60604 -8.02670 1549 ft 12 kts 100°
2026-04-29 16:37 31.60556 -8.02637 1549 ft 14 kts 179°
2026-04-29 16:38 31.60483 -8.02644 1549 ft 6 kts 186°
2026-04-29 16:38 31.60434 -8.02635 1549 ft 8 kts 134°
2026-04-29 16:38 31.60424 -8.02562 1549 ft 11 kts 96°
2026-04-29 16:38 31.60413 -8.02465 1549 ft 14 kts 96°
2026-04-29 16:39 31.60405 -8.02351 1549 ft 12 kts 95°
2026-04-29 16:39 31.60396 -8.02243 1549 ft 11 kts 97°
2026-04-29 16:39 31.60352 -8.02195 1549 ft 10 kts 182°
2026-04-29 16:39 31.60272 -8.02204 1549 ft 13 kts 186°
2026-04-29 16:40 31.60236 -8.02208 1549 ft 0 kts 185°
2026-04-29 16:40 31.60235 -8.02208 1549 ft 1 kts 185°
2026-04-29 16:40 31.60199 -8.02211 1549 ft 8 kts 182°
2026-04-29 16:40 31.60179 -8.02236 1549 ft 5 kts 277°
2026-04-29 16:41 31.60183 -8.02278 1549 ft 2 kts 274°
2026-04-29 16:41 31.60183 -8.02293 1549 ft 0 kts 273°